Wind_Speed
27 27 27 27 26 24 23 21 19 17 15 13 12 10 9 8 8 7 7 6 6 6 6 6 6 5 5 5 5 5 5 5 5 5 6 6 6 6 7 8 8 9 10
29 29 28 28 27 26 25 24 22 20 18 16 14 13 11 10 10 9 8 8 7 7 7 7 6 6 6 6 6 6 6 7 7 7 7 7 7 8 8 9 9 10 11
31 30 30 29 29 28 27 26 24 22 21 19 17 16 14 13 12 11 10 10 9 8 8 8 8 8 8 8 8 7 8 8 8 8 9 9 9 9 10 10 11 11 12
32 31 31 31 30 30 29 28 27 25 23 21 20 18 17 15 14 13 12 11 11 10 10 9 9 9 9 9 9 9 9 9 10 10 10 10 11 11 11 12 12 13 14
34 33 33 32 31 31 30 29 28 27 26 24 22 21 19 18 17 16 14 14 13 12 12 11 11 11 11 11 11 11 11 11 12 12 12 12 12 13 13 14 14 15 15
35 35 34 33 32 32 32 31 30 29 28 27 25 23 22 20 19 18 17 16 15 14 13 13 13 12 12 12 13 13 13 13 13 14 14 14 14 15 15 16 16 17 17
37 36 35 35 34 33 32 32 32 31 30 28 27 26 24 23 22 20 19 18 17 16 15 15 15 14 14 14 14 15 15 15 15 15 15 16 16 16 17 17 18 18 19
39 38 37 36 36 35 34 33 33 33 32 31 29 28 27 25 24 23 22 20 19 18 17 17 17 16 16 16 16 16 16 16 17 17 17 18 18 18 19 19 20 20 21
41 40 39 38 37 37 36 35 34 34 33 32 32 31 29 28 26 25 24 23 22 20 19 19 19 18 18 18 18 18 18 19 19 19 19 19 20 20 21 21 22 23 23
42 41 39 40 38 38 37 37 36 35 34 34 34 33 31 30 28 27 27 25 24 23 22 21 20 20 20 20 20 20 20 20 21 21 21 22 22 22 23 23 24 24 24
44 43 41 41 40 39 39 39 38 37 35 35 35 35 33 32 31 29 28 28 26 25 24 24 23 22 22 22 22 22 22 22 23 23 23 24 24 25 25 25 25 26 26
46 44 43 41 41 40 40 40 39 39 38 37 37 36 35 34 33 31 30 30 28 27 26 26 25 25 24 24 24 24 24 24 24 25 25 25 26 26 26 27 27 28 28
47 46 45 43 42 41 40 40 41 41 40 39 38 38 36 35 34 33 32 31 30 29 29 28 28 27 27 27 26 26 26 26 26 26 27 27 28 28 29 29 29 30 30
49 48 46 45 44 42 42 41 42 41 40 39 38 38 38 37 36 35 34 33 33 32 31 31 30 29 29 29 28 28 27 28 28 28 29 29 30 31 31 32 31 31 32
48 48 48 46 45 43 42 42 42 41 41 40 38 38 39 39 38 37 36 35 35 34 34 33 32 31 31 30 29 29 29 30 30 30 30 31 31 32 33 33 33 33 34
48 48 48 46 45 45 43 42 43 42 42 43 41 40 40 40 39 39 38 37 36 36 35 35 34 34 33 32 31 31 31 32 31 31 32 32 33 33 34 34 34 35 35
49 48 48 48 47 46 46 44 44 43 43 44 44 42 41 41 41 40 39 38 38 37 37 37 36 35 35 34 34 34 34 34 34 34 34 34 34 34 35 35 35 36 36
50 49 49 49 49 48 48 47 46 45 43 44 45 44 43 42 41 41 40 39 39 39 38 38 38 37 37 37 36 36 36 36 36 36 36 36 36 36 36 37 37 37 38
48 49 50 50 49 49 48 47 47 47 46 46 46 46 44 42 42 42 41 40 40 39 39 39 39 39 39 38 38 38 38 38 38 39 39 39 38 39 39 39 39 40 40
45 47 48 48 48 48 48 47 47 46 46 46 45 46 46 45 44 43 42 41 41 41 40 40 40 40 40 40 40 39 40 41 41 41 41 41 41 41 41 41 41 42 42
43 45 46 45 46 47 47 46 46 45 46 45 44 45 46 44 44 44 43 42 42 42 41 41 42 42 42 43 43 43 43 43 43 44 44 44 43 43 43 44 44 45 45
39 42 43 43 43 44 45 46 45 45 44 44 43 43 44 43 43 43 43 43 43 42 42 43 43 43 43 44 45 45 45 45 44 45 45 45 45 45 46 46 46 46 47
35 38 40 40 40 42 42 42 44 44 44 44 43 43 44 44 43 43 42 43 43 43 43 44 44 44 45 46 46 47 46 46 46 46 45 46 47 47 47 47 47 48 48
31 33 34 36 38 39 39 40 41 42 44 44 42 41 41 42 42 42 43 43 43 43 43 44 44 45 45 46 46 47 47 48 48 47 46 46 46 47 48 48 48 48 49
27 28 30 32 34 36 36 36 38 39 40 41 41 41 40 41 42 42 42 42 42 43 44 44 44 46 46 46 47 47 47 47 48 48 48 47 47 48 49 50 49 49 50
21 23 26 27 29 30 31 32 34 35 36 38 39 41 41 41 41 41 40 41 43 44 45 45 45 46 46 46 47 47 48 48 48 49 49 49 49 49 50 51 50 50 50
Wind_Direction
248 248 249 249 249 250 252 251 250 250 250 250 253 255 260 265 269 273 278 285 294 301 305 306 306 309 311 307 302 298 297 299 300 299 299 303 308 313 317 322 326 329 332
250 250 250 250 249 249 250 251 251 251 251 252 253 254 257 261 264 268 271 275 282 287 291 294 296 296 299 297 292 289 290 292 294 295 296 297 301 304 308 312 316 320 324
250 250 250 250 250 249 249 249 250 251 251 252 253 253 255 258 260 264 268 271 274 278 281 285 287 288 289 290 288 285 286 287 289 292 294 295 297 299 302 306 310 313 317
250 251 251 251 250 249 249 248 249 250 251 252 252 252 254 256 258 261 264 268 270 271 274 278 280 282 284 287 287 284 283 284 285 288 290 292 294 296 298 301 305 308 311
249 250 250 251 250 249 248 248 249 249 250 251 252 252 253 255 257 260 262 264 266 268 271 274 276 279 280 282 284 282 281 281 282 284 286 289 291 294 295 298 300 303 307
248 249 249 249 250 249 248 248 248 249 249 250 251 252 253 254 256 259 261 262 264 267 270 272 274 276 277 278 279 280 280 280 281 282 284 286 289 291 293 296 298 301 303
247 247 247 247 248 248 248 247 247 248 248 249 250 251 252 253 255 257 259 262 264 267 269 270 271 273 275 276 278 279 280 280 280 281 282 284 286 289 292 294 296 298 301
247 247 246 247 247 247 247 246 246 247 247 248 249 250 252 253 254 256 257 260 263 266 268 268 270 271 273 274 276 277 278 278 279 281 282 283 284 287 290 292 294 296 299
245 245 245 246 247 247 245 245 245 246 247 247 248 249 251 252 254 255 256 259 261 264 266 267 268 269 272 274 275 276 277 278 279 279 281 282 283 285 288 290 292 294 296
244 244 245 245 246 246 245 244 243 244 245 246 247 247 249 251 253 254 255 257 260 262 265 266 267 268 270 272 274 275 276 277 278 278 279 281 282 284 286 288 291 293 295
243 243 243 244 244 245 246 244 243 243 245 245 246 247 248 249 251 253 254 255 258 260 263 266 267 268 271 272 273 274 275 276 277 278 278 279 281 283 285 287 289 291 293
242 243 243 243 244 245 246 244 243 242 243 244 245 246 247 248 250 252 253 254 257 259 262 264 266 268 270 272 273 274 274 275 276 277 277 278 280 281 283 286 288 290 292
241 242 243 243 243 244 244 244 243 243 242 242 243 244 246 248 249 250 252 255 256 258 260 262 264 267 269 272 273 273 274 275 275 276 277 279 279 280 282 284 286 288 290
240 241 242 241 240 241 242 243 242 242 241 242 242 243 245 246 248 250 252 254 256 257 259 261 263 265 268 270 271 272 273 274 276 276 277 279 280 280 282 283 285 287 289
240 241 241 239 239 240 241 241 241 242 240 241 242 243 244 246 248 250 252 254 255 257 259 260 262 263 265 268 270 271 272 274 275 277 278 280 281 281 282 283 285 286 289
240 240 239 237 238 239 240 242 241 241 241 240 240 242 244 246 247 249 252 254 255 257 258 259 262 262 264 266 268 270 271 273 275 276 277 279 281 281 282 283 284 286 287
239 239 238 236 237 238 239 240 240 240 241 240 239 241 243 245 246 249 252 253 254 255 257 259 262 263 264 265 267 268 270 272 273 274 276 278 280 281 281 282 282 284 286
240 239 237 235 236 237 238 239 240 240 241 240 239 241 242 245 247 248 251 253 254 255 257 259 261 263 265 266 267 268 270 271 273 274 275 277 278 279 279 280 281 282 284
238 237 234 234 236 235 236 238 240 239 240 240 240 241 242 244 246 248 250 253 255 256 256 258 260 263 265 266 267 269 270 272 273 274 275 277 278 278 278 279 280 282 283
235 233 233 234 234 235 237 239 239 239 238 240 240 242 243 244 246 249 251 253 255 256 258 259 261 263 264 265 267 269 271 273 273 273 275 277 278 278 278 279 279 281 282
233 231 233 234 235 236 237 238 239 240 238 239 241 241 241 243 246 248 251 253 255 257 258 259 260 262 265 267 268 269 271 273 274 274 275 276 276 276 278 279 279 281 282
233 231 233 235 236 236 237 238 239 238 237 237 238 239 239 242 245 248 252 254 254 257 259 260 261 262 264 267 269 270 271 272 274 274 274 275 276 277 278 279 279 281 283
233 233 233 233 235 237 237 238 238 238 238 237 238 241 241 242 245 248 251 253 255 256 259 261 262 264 266 268 270 272 274 274 274 274 273 274 275 277 278 279 281 281 282
236 235 235 235 235 236 237 238 239 239 238 237 238 240 241 242 245 249 251 254 257 259 261 263 264 266 268 269 272 274 276 276 275 274 274 276 277 278 279 280 280 281 281
233 232 232 233 234 237 238 237 237 239 239 238 238 239 242 244 245 248 251 252 256 259 261 264 265 268 270 271 272 274 276 277 277 277 277 277 278 279 280 281 280 280 280
227 229 232 232 233 236 237 238 238 240 239 238 239 242 243 245 247 248 251 254 257 260 263 265 266 269 270 272 272 274 276 277 278 278 278 279 279 280 280 280 279 280 280
Height
5854 5856 5858 5859 5861 5863 5865 5867 5868 5870 5871 5872 5873 5873 5874 5874 5875 5875 5876 5876 5877 5878 5878 5878 5878 5878 5878 5879 5879 5879 5879 5879 5879 5879 5879 5878 5878 5878 5877 5876 5876 5875 5874
5850 5852 5854 5856 5858 5860 5862 5863 5865 5867 5868 5869 5871 5871 5872 5873 5873 5874 5874 5875 5876 5876 5877 5877 5877 5877 5878 5878 5878 5878 5878 5878 5878 5878 5878 5878 5877 5877 5876 5875 5875 5874 5873
5845 5847 5849 5851 5853 5855 5858 5860 5862 5863 5865 5867 5868 5869 5870 5871 5871 5872 5873 5874 5874 5875 5875 5876 5876 5876 5876 5877 5877 5877 5877 5877 5877 5877 5877 5877 5876 5876 5875 5874 5873 5873 5872
5841 5843 5845 5847 5849 5851 5853 5855 5858 5860 5862 5863 5865 5866 5867 5868 5869 5870 5871 5872 5872 5873 5874 5874 5874 5875 5875 5875 5875 5875 5876 5875 5875 5875 5875 5875 5875 5874 5873 5873 5872 5871 5870
5835 5837 5840 5842 5844 5847 5849 5851 5853 5855 5858 5859 5861 5863 5864 5865 5867 5867 5868 5869 5870 5871 5872 5872 5872 5873 5873 5873 5874 5874 5874 5874 5874 5874 5873 5873 5873 5872 5871 5871 5870 5869 5868
5829 5831 5834 5837 5839 5841 5844 5846 5848 5851 5853 5855 5857 5859 5861 5862 5863 5864 5866 5867 5868 5869 5869 5870 5870 5871 5871 5871 5871 5871 5872 5872 5872 5871 5871 5871 5870 5870 5869 5869 5868 5867 5866
5822 5825 5828 5830 5833 5836 5838 5841 5843 5846 5848 5850 5853 5855 5856 5858 5860 5861 5862 5863 5865 5866 5866 5867 5867 5868 5868 5869 5869 5869 5869 5869 5869 5869 5869 5868 5868 5867 5867 5866 5865 5864 5863
5815 5818 5821 5824 5827 5830 5832 5835 5838 5840 5843 5845 5848 5850 5852 5854 5855 5857 5858 5860 5861 5862 5863 5864 5864 5865 5865 5866 5866 5866 5866 5866 5866 5866 5866 5865 5865 5864 5864 5863 5862 5861 5860
5807 5811 5814 5817 5820 5823 5826 5829 5832 5834 5837 5840 5842 5845 5847 5849 5851 5853 5854 5856 5857 5858 5859 5860 5861 5861 5862 5862 5863 5863 5863 5863 5863 5863 5862 5862 5861 5861 5860 5859 5858 5857 5856
5799 5803 5807 5810 5812 5816 5819 5822 5825 5828 5831 5833 5836 5839 5841 5844 5846 5848 5850 5851 5853 5854 5855 5856 5857 5857 5858 5858 5859 5859 5859 5859 5859 5859 5858 5858 5857 5857 5856 5855 5854 5853 5852
5791 5795 5799 5802 5806 5809 5812 5815 5819 5821 5824 5827 5830 5833 5835 5838 5840 5843 5844 5846 5848 5849 5850 5851 5852 5853 5854 5854 5855 5855 5855 5855 5855 5855 5854 5854 5853 5852 5852 5851 5850 5849 5847
5782 5786 5790 5794 5798 5801 5804 5808 5811 5814 5818 5821 5824 5827 5829 5832 5835 5837 5839 5841 5842 5844 5845 5847 5847 5848 5849 5849 5850 5850 5850 5850 5850 5850 5849 5849 5848 5848 5847 5846 5845 5844 5843
5773 5778 5782 5786 5790 5793 5797 5800 5803 5807 5810 5814 5817 5820 5823 5825 5828 5831 5833 5835 5837 5838 5840 5841 5842 5843 5843 5844 5844 5845 5845 5845 5845 5844 5844 5844 5843 5842 5842 5841 5840 5838 5837
5763 5768 5773 5777 5781 5785 5788 5791 5795 5799 5803 5806 5809 5813 5816 5819 5822 5824 5827 5829 5831 5832 5834 5835 5836 5837 5838 5838 5839 5839 5839 5839 5839 5839 5839 5838 5837 5836 5836 5835 5834 5833 5831
5754 5758 5763 5768 5772 5776 5780 5783 5787 5791 5795 5798 5802 5805 5808 5811 5814 5817 5820 5822 5824 5826 5827 5829 5830 5831 5831 5832 5832 5833 5833 5833 5833 5833 5832 5832 5831 5830 5829 5828 5828 5826 5825
5743 5748 5753 5758 5763 5767 5771 5775 5778 5782 5786 5790 5794 5797 5801 5804 5807 5810 5813 5815 5817 5819 5821 5822 5823 5824 5825 5825 5826 5826 5826 5826 5826 5826 5826 5825 5824 5823 5823 5822 5821 5819 5818
5732 5738 5743 5748 5754 5758 5763 5766 5769 5773 5777 5782 5786 5789 5793 5796 5799 5803 5805 5808 5809 5811 5813 5814 5816 5817 5818 5819 5819 5819 5819 5819 5819 5819 5819 5818 5817 5816 5815 5814 5813 5812 5811
5722 5727 5733 5738 5743 5748 5753 5757 5761 5765 5769 5773 5777 5781 5785 5788 5792 5795 5797 5800 5801 5803 5805 5807 5808 5810 5811 5811 5811 5811 5811 5811 5811 5811 5811 5810 5809 5809 5808 5806 5805 5804 5803
5711 5716 5723 5728 5734 5739 5743 5747 5751 5756 5760 5764 5769 5773 5777 5780 5783 5786 5789 5792 5793 5795 5797 5799 5800 5802 5803 5803 5803 5803 5804 5803 5803 5803 5802 5802 5801 5800 5799 5798 5797 5796 5794
5701 5707 5713 5718 5723 5728 5733 5738 5742 5747 5751 5756 5760 5764 5768 5772 5775 5778 5781 5783 5785 5787 5789 5791 5792 5793 5794 5794 5794 5794 5795 5795 5794 5794 5793 5792 5791 5790 5790 5788 5787 5786 5785
5693 5698 5704 5709 5714 5719 5724 5729 5733 5738 5743 5747 5752 5755 5759 5763 5767 5770 5773 5775 5777 5779 5781 5782 5783 5784 5784 5784 5784 5785 5786 5785 5785 5784 5783 5782 5781 5780 5779 5778 5777 5775 5774
5685 5690 5695 5700 5705 5710 5715 5720 5724 5729 5733 5738 5743 5746 5750 5754 5757 5761 5764 5766 5768 5770 5772 5773 5774 5774 5774 5774 5774 5774 5775 5777 5776 5774 5773 5772 5771 5769 5768 5767 5765 5764 5762
5678 5683 5687 5692 5697 5702 5706 5710 5715 5719 5724 5729 5734 5738 5742 5745 5749 5752 5755 5757 5759 5761 5763 5763 5764 5765 5765 5765 5764 5763 5763 5764 5765 5764 5762 5760 5759 5758 5757 5755 5753 5752 5750
5673 5676 5680 5685 5689 5693 5697 5702 5706 5710 5715 5720 5725 5729 5733 5737 5740 5743 5746 5748 5750 5752 5753 5754 5754 5754 5754 5754 5754 5753 5752 5751 5750 5751 5751 5749 5747 5745 5744 5742 5741 5739 5737
5668 5671 5675 5679 5682 5686 5690 5693 5697 5701 5706 5711 5716 5721 5725 5728 5731 5734 5736 5738 5740 5742 5743 5743 5744 5744 5743 5743 5743 5742 5740 5739 5737 5736 5737 5737 5735 5733 5731 5729 5728 5726 5724
5665 5668 5671 5674 5677 5680 5683 5686 5690 5694 5699 5704 5708 5712 5716 5719 5722 5724 5726 5728 5730 5732 5733 5733 5733 5733 5732 5731 5730 5729 5728 5727 5726 5723 5722 5722 5721 5721 5718 5716 5714 5712 5710